Location: Bydgoszcz
(53.1640°N, 17.9142°E)
Time: 08:53:22
(UTC+02:00)

PCSat - Pass Details

Date: 21 April 2024
Orbit: 783 x 792 km, 67.1° (Epoch: 27 May)

Event Time Altitude Azimuth Distance (km) Brightness Sun altitude
Rises 21:41:17 0° 241° (WSW) 3,276 13.0 -13.6°
Reaches altitude 10° 21:43:47 10° 247° (WSW) 2,351 12.3 -13.8°
Maximum altitude 21:48:58 46° 321° (NW) 1,060 10.8 -14.4°
Drops below altitude 10° 21:54:12 10° 34° (NE) 2,368 12.2 -14.9°
Sets 21:56:44 0° 41° (NE) 3,301 12.9 -15.2°
